KLM213 EDDL-EGKK

Flight info

Callsign KLM213
Flight time 0h 55m
Altitude 30000
Route MODRU7Z/05R MODRU Z717 MAS UM617 SOGRI DCT DENUT L610 TEBRA
Aircraft B77W/H-SDE1E2E3FGHIJ2J3J4J5M1RWXY/LB1D1

Departure

Time 2026-05-05 14:32
Airport Düsseldorf Airport (EDDL)

Arrival

Time 2026-05-05 15:28
Airport London Gatwick Airport (EGKK)
Time Latitude Longitude Altitude Speed Heading
2026-05-05 14:08 51.27609 6.76288 161 ft 0 kts
2026-05-05 14:16 51.27592 6.76284 130 ft 3 kts
2026-05-05 14:16 51.27572 6.76283 135 ft 3 kts 355°
2026-05-05 14:16 51.27554 6.76288 135 ft 2 kts 327°
2026-05-05 14:16 51.27546 6.76302 127 ft 1 kts 282°
2026-05-05 14:17 51.27544 6.76316 130 ft 1 kts 265°
2026-05-05 14:17 51.27546 6.76330 135 ft 1 kts 255°
2026-05-05 14:17 51.27548 6.76343 134 ft 1 kts 251°
2026-05-05 14:17 51.27551 6.76356 134 ft 1 kts 248°
2026-05-05 14:18 51.27552 6.76363 134 ft 0 kts 247°
2026-05-05 14:22 51.27543 6.76327 135 ft 8 kts 247°
2026-05-05 14:22 51.27523 6.76249 135 ft 5 kts 247°
2026-05-05 14:23 51.27513 6.76192 132 ft 5 kts 258°
2026-05-05 14:23 51.27504 6.76134 130 ft 6 kts 252°
2026-05-05 14:23 51.27489 6.76072 130 ft 6 kts 249°
2026-05-05 14:23 51.27475 6.76011 129 ft 6 kts 249°
2026-05-05 14:24 51.27478 6.75949 135 ft 6 kts 301°
2026-05-05 14:24 51.27513 6.75914 126 ft 6 kts 334°
2026-05-05 14:24 51.27552 6.75884 130 ft 6 kts 333°
2026-05-05 14:24 51.27590 6.75852 126 ft 6 kts 333°
2026-05-05 14:25 51.27629 6.75822 129 ft 6 kts 338°
2026-05-05 14:25 51.27673 6.75810 128 ft 7 kts 354°
2026-05-05 14:25 51.27722 6.75811 129 ft 8 kts
2026-05-05 14:25 51.27786 6.75814 134 ft 10 kts 358°
2026-05-05 14:26 51.27845 6.75791 125 ft 9 kts 317°
2026-05-05 14:26 51.27862 6.75685 127 ft 11 kts 279°
2026-05-05 14:26 51.27893 6.75568 128 ft 12 kts 275°
2026-05-05 14:26 51.27856 6.75447 126 ft 9 kts 233°
2026-05-05 14:27 51.27844 6.75399 126 ft 1 kts 261°
2026-05-05 14:27 51.27845 6.75385 126 ft 1 kts 276°
2026-05-05 14:27 51.27845 6.75384 126 ft 0 kts 278°
2026-05-05 14:28 51.27845 6.75380 126 ft 1 kts 281°
2026-05-05 14:28 51.27854 6.75350 127 ft 4 kts 302°
2026-05-05 14:28 51.27869 6.75333 124 ft 0 kts 329°
2026-05-05 14:30 51.27869 6.75332 124 ft 0 kts 329°
2026-05-05 14:30 51.27892 6.75311 129 ft 7 kts 329°
2026-05-05 14:30 51.27931 6.75277 124 ft 6 kts 336°
2026-05-05 14:31 51.27970 6.75261 125 ft 6 kts
2026-05-05 14:31 51.28004 6.75298 125 ft 6 kts 43°
2026-05-05 14:31 51.28042 6.75372 126 ft 19 kts 52°
2026-05-05 14:31 51.28241 6.75786 128 ft 84 kts 53°
2026-05-05 14:32 51.28747 6.76847 128 ft 151 kts 52°
2026-05-05 14:32 51.29441 6.78354 321 ft 182 kts 51°
2026-05-05 14:32 51.30166 6.79941 1164 ft 172 kts 51°
2026-05-05 14:32 51.30881 6.81444 1924 ft 174 kts 52°
2026-05-05 14:33 51.31651 6.83040 2297 ft 192 kts 52°
2026-05-05 14:33 51.32527 6.84846 2497 ft 219 kts 52°
2026-05-05 14:33 51.33492 6.86871 2841 ft 240 kts 54°
2026-05-05 14:33 51.34493 6.89075 3472 ft 246 kts 50°
2026-05-05 14:34 51.35891 6.90671 3980 ft 256 kts 17°
2026-05-05 14:34 51.37671 6.91213 4561 ft 265 kts
2026-05-05 14:34 51.39519 6.91672 4876 ft 272 kts
2026-05-05 14:34 51.41402 6.92156 4866 ft 276 kts
2026-05-05 14:35 51.43295 6.92653 5019 ft 277 kts
2026-05-05 14:35 51.45200 6.93158 5781 ft 278 kts
2026-05-05 14:35 51.47118 6.93596 6529 ft 280 kts
2026-05-05 14:35 51.49017 6.92921 7081 ft 284 kts 329°
2026-05-05 14:36 51.50463 6.90824 7845 ft 283 kts 301°
2026-05-05 14:36 51.51295 6.87972 8452 ft 285 kts 289°
2026-05-05 14:36 51.52003 6.84965 9160 ft 289 kts 288°
2026-05-05 14:36 51.52709 6.81935 9913 ft 291 kts 288°
2026-05-05 14:37 51.53432 6.78854 10406 ft 304 kts 289°
2026-05-05 14:37 51.54212 6.75549 10601 ft 329 kts 289°
2026-05-05 14:37 51.55056 6.71985 10797 ft 353 kts 289°
2026-05-05 14:37 51.55672 6.68095 10969 ft 368 kts 270°
2026-05-05 14:38 51.55281 6.64010 11570 ft 375 kts 248°
2026-05-05 14:38 51.54142 6.60247 12319 ft 378 kts 240°
2026-05-05 14:38 51.52879 6.56475 13107 ft 387 kts 240°
2026-05-05 14:38 51.51600 6.52639 13971 ft 393 kts 241°
2026-05-05 14:39 51.50335 6.48795 14845 ft 395 kts 241°
2026-05-05 14:39 51.49061 6.44874 15766 ft 398 kts 241°
2026-05-05 14:39 51.47761 6.40863 16617 ft 402 kts 241°
2026-05-05 14:39 51.46367 6.37061 17316 ft 402 kts 230°
2026-05-05 14:40 51.44245 6.34018 17975 ft 407 kts 211°
2026-05-05 14:40 51.41898 6.31525 18554 ft 409 kts 218°
2026-05-05 14:40 51.39892 6.28249 19190 ft 416 kts 232°
2026-05-05 14:40 51.38284 6.24418 19957 ft 416 kts 235°
2026-05-05 14:41 51.36659 6.20621 20602 ft 421 kts 233°
2026-05-05 14:41 51.34936 6.16807 21312 ft 424 kts 232°
2026-05-05 14:41 51.33168 6.13009 22049 ft 427 kts 231°
2026-05-05 14:41 51.31370 6.09209 22780 ft 430 kts 231°
2026-05-05 14:42 51.29549 6.05388 23468 ft 433 kts 231°
2026-05-05 14:42 51.27714 6.01549 24032 ft 437 kts 231°
2026-05-05 14:42 51.25865 5.97684 24595 ft 440 kts 231°
2026-05-05 14:42 51.24003 5.93793 25151 ft 442 kts 231°
2026-05-05 14:43 51.22130 5.89879 25707 ft 445 kts 231°
2026-05-05 14:43 51.20240 5.85935 26243 ft 448 kts 231°
2026-05-05 14:43 51.18346 5.81986 26768 ft 451 kts 231°
2026-05-05 14:43 51.16437 5.78014 27320 ft 454 kts 231°
2026-05-05 14:44 51.14505 5.73998 27803 ft 458 kts 231°
2026-05-05 14:44 51.12563 5.69965 28264 ft 460 kts 231°
2026-05-05 14:44 51.10605 5.65907 28716 ft 463 kts 231°
2026-05-05 14:44 51.08639 5.61839 29134 ft 465 kts 231°
2026-05-05 14:45 51.06664 5.57759 29529 ft 468 kts 231°
2026-05-05 14:45 51.04676 5.53658 29957 ft 468 kts 230°
2026-05-05 14:45 51.02693 5.49574 30467 ft 465 kts 230°
2026-05-05 14:45 51.00722 5.45519 31030 ft 462 kts 230°
2026-05-05 14:46 50.98762 5.41495 31542 ft 459 kts 230°
2026-05-05 14:46 50.96812 5.37499 31914 ft 460 kts 230°
2026-05-05 14:46 50.92867 5.29434 31879 ft 461 kts 230°
2026-05-05 14:47 50.88972 5.21489 31873 ft 459 kts 230°
2026-05-05 14:47 50.85051 5.13506 31877 ft 457 kts 231°
2026-05-05 14:48 50.83485 5.09126 31877 ft 464 kts 247°
2026-05-05 14:48 50.82782 5.04115 31892 ft 472 kts 263°
2026-05-05 14:48 50.82884 4.98897 31897 ft 480 kts 275°
2026-05-05 14:48 50.83759 4.93758 31878 ft 488 kts 291°
2026-05-05 14:49 50.86848 4.84145 31898 ft 493 kts 295°
2026-05-05 14:49 50.90041 4.74516 31891 ft 495 kts 294°
2026-05-05 14:50 50.92642 4.66426 31883 ft 495 kts 294°
2026-05-05 14:50 50.96222 4.55025 31885 ft 493 kts 293°
2026-05-05 14:51 50.98743 4.46928 31895 ft 492 kts 293°
2026-05-05 14:51 51.01768 4.37185 31880 ft 492 kts 293°
2026-05-05 14:52 51.04782 4.27453 31903 ft 490 kts 293°
2026-05-05 14:52 51.07784 4.17723 31900 ft 490 kts 293°
2026-05-05 14:53 51.10781 4.07971 31898 ft 491 kts 293°
2026-05-05 14:53 51.13773 3.98194 31901 ft 491 kts 292°
2026-05-05 14:54 51.16755 3.88411 31883 ft 492 kts 292°
2026-05-05 14:54 51.19735 3.78597 31896 ft 491 kts 292°
2026-05-05 14:55 51.22646 3.68814 31883 ft 489 kts 289°
2026-05-05 14:55 51.24664 3.58528 31887 ft 483 kts 278°
2026-05-05 14:56 51.25960 3.47941 31893 ft 483 kts 278°
2026-05-05 14:56 51.27309 3.37517 31906 ft 482 kts 279°
2026-05-05 14:57 51.28679 3.27031 31903 ft 482 kts 279°
2026-05-05 14:57 51.30035 3.16540 31912 ft 482 kts 278°
2026-05-05 14:58 51.31381 3.06039 31903 ft 481 kts 279°
2026-05-05 14:58 51.32711 2.95583 31908 ft 480 kts 278°
2026-05-05 14:59 51.34033 2.85117 31906 ft 479 kts 278°
2026-05-05 14:59 51.34695 2.79836 31028 ft 491 kts 279°
2026-05-05 14:59 51.35366 2.74468 30221 ft 491 kts 279°
2026-05-05 15:00 51.36028 2.69138 29568 ft 485 kts 279°
2026-05-05 15:00 51.36437 2.65631 29273 ft 476 kts 276°
2026-05-05 15:00 51.36663 2.58772 29073 ft 456 kts 264°
2026-05-05 15:00 51.36321 2.53742 28734 ft 453 kts 258°
2026-05-05 15:01 51.35642 2.48839 28447 ft 449 kts 251°
2026-05-05 15:01 51.34741 2.44071 28215 ft 446 kts 251°
2026-05-05 15:01 51.33840 2.39334 28008 ft 444 kts 251°
2026-05-05 15:01 51.32948 2.34625 27755 ft 442 kts 251°
2026-05-05 15:02 51.32063 2.29928 27471 ft 440 kts 251°
2026-05-05 15:02 51.31187 2.25252 27257 ft 438 kts 251°
2026-05-05 15:02 51.30315 2.20593 26986 ft 437 kts 251°
2026-05-05 15:02 51.29446 2.15943 26746 ft 435 kts 251°
2026-05-05 15:03 51.28583 2.11331 26460 ft 433 kts 251°
2026-05-05 15:03 51.27729 2.06777 25872 ft 433 kts 251°
2026-05-05 15:03 51.26854 2.02127 25315 ft 430 kts 251°
2026-05-05 15:03 51.26005 1.97625 24766 ft 428 kts 251°
2026-05-05 15:04 51.25137 1.93032 24215 ft 426 kts 251°
2026-05-05 15:04 51.24281 1.88512 23668 ft 424 kts 251°
2026-05-05 15:04 51.23438 1.84074 23050 ft 423 kts 251°
2026-05-05 15:04 51.22585 1.79603 22456 ft 420 kts 251°
2026-05-05 15:05 51.20890 1.70744 21353 ft 415 kts 251°
2026-05-05 15:05 51.20050 1.66358 20821 ft 412 kts 251°
2026-05-05 15:05 51.19211 1.61995 20284 ft 410 kts 251°
2026-05-05 15:06 51.18377 1.57663 19762 ft 408 kts 251°
2026-05-05 15:06 51.17543 1.53347 19239 ft 406 kts 252°
2026-05-05 15:06 51.16712 1.49058 18718 ft 404 kts 252°
2026-05-05 15:06 51.15883 1.44785 18196 ft 403 kts 252°
2026-05-05 15:07 51.15055 1.40526 17592 ft 402 kts 252°
2026-05-05 15:07 51.14228 1.36279 17045 ft 400 kts 252°
2026-05-05 15:07 51.13403 1.32051 16509 ft 398 kts 252°
2026-05-05 15:07 51.12580 1.27847 15979 ft 396 kts 252°
2026-05-05 15:08 51.11770 1.23717 15466 ft 394 kts 252°
2026-05-05 15:08 51.10943 1.19509 14944 ft 393 kts 252°
2026-05-05 15:08 51.10138 1.15423 14434 ft 391 kts 252°
2026-05-05 15:08 51.09326 1.11307 13925 ft 390 kts 252°
2026-05-05 15:09 51.08512 1.07190 13371 ft 389 kts 253°
2026-05-05 15:09 51.07702 1.03102 12817 ft 387 kts 253°
2026-05-05 15:09 51.06895 0.99033 12291 ft 385 kts 253°
2026-05-05 15:09 51.06091 0.94993 11788 ft 382 kts 253°
2026-05-05 15:10 51.05223 0.91007 11276 ft 380 kts 248°
2026-05-05 15:10 51.04125 0.87222 10942 ft 372 kts 244°
2026-05-05 15:10 51.02977 0.83609 10794 ft 361 kts 244°
2026-05-05 15:10 51.01869 0.80104 10630 ft 350 kts 244°
2026-05-05 15:11 51.00818 0.76688 10482 ft 339 kts 245°
2026-05-05 15:11 50.99815 0.73362 10342 ft 329 kts 245°
2026-05-05 15:11 50.98845 0.70132 10207 ft 320 kts 245°
2026-05-05 15:11 50.97900 0.66983 10072 ft 310 kts 245°
2026-05-05 15:12 50.96984 0.63937 9941 ft 301 kts 245°
2026-05-05 15:12 50.96089 0.60967 9715 ft 296 kts 245°
2026-05-05 15:12 50.95202 0.58024 9337 ft 296 kts 245°
2026-05-05 15:12 50.94316 0.55084 8967 ft 295 kts 245°
2026-05-05 15:13 50.93435 0.52174 8692 ft 294 kts 245°
2026-05-05 15:13 50.92569 0.49314 8370 ft 292 kts 245°
2026-05-05 15:13 50.91712 0.46413 8057 ft 285 kts 251°
2026-05-05 15:13 50.91453 0.43346 7615 ft 281 kts 279°
2026-05-05 15:14 50.91910 0.40362 7313 ft 278 kts 288°
2026-05-05 15:14 50.92323 0.38203 7062 ft 279 kts 288°
2026-05-05 15:14 50.92880 0.35244 6784 ft 280 kts 288°
2026-05-05 15:14 50.93417 0.32354 6516 ft 278 kts 288°
2026-05-05 15:15 50.93957 0.29441 6333 ft 272 kts 288°
2026-05-05 15:15 50.94308 0.27507 6216 ft 266 kts 285°
2026-05-05 15:15 50.94405 0.26732 6166 ft 264 kts 279°
2026-05-05 15:15 50.94459 0.23885 6082 ft 254 kts 271°
2026-05-05 15:16 50.94422 0.21152 6047 ft 247 kts 271°
2026-05-05 15:16 50.94377 0.18417 6090 ft 250 kts 271°
2026-05-05 15:16 50.94333 0.15676 6034 ft 246 kts 271°
2026-05-05 15:16 50.94291 0.12991 6009 ft 243 kts 270°
2026-05-05 15:17 50.94252 0.10308 5818 ft 244 kts 271°
2026-05-05 15:17 50.94225 0.07653 5579 ft 241 kts 271°
2026-05-05 15:17 50.94174 0.04971 5221 ft 245 kts 271°
2026-05-05 15:17 50.94127 0.02310 5104 ft 236 kts 272°
2026-05-05 15:18 50.94089 -0.00249 5090 ft 231 kts 271°
2026-05-05 15:18 50.94044 -0.02850 5061 ft 241 kts 271°
2026-05-05 15:18 50.94019 -0.05555 4996 ft 247 kts 271°
2026-05-05 15:18 50.93974 -0.08260 5000 ft 247 kts 271°
2026-05-05 15:19 50.93926 -0.10992 4996 ft 247 kts 271°
2026-05-05 15:19 50.94152 -0.13641 4960 ft 241 kts 288°
2026-05-05 15:19 50.94637 -0.16188 4706 ft 241 kts 290°
2026-05-05 15:19 50.95150 -0.18707 4407 ft 239 kts 291°
2026-05-05 15:20 50.95656 -0.21192 4182 ft 234 kts 290°
2026-05-05 15:20 50.96161 -0.23655 3820 ft 237 kts 290°
2026-05-05 15:20 50.96678 -0.26132 3547 ft 234 kts 291°
2026-05-05 15:20 50.97181 -0.28560 3296 ft 230 kts 290°
2026-05-05 15:21 50.97669 -0.30935 3247 ft 224 kts 291°
2026-05-05 15:21 50.98150 -0.33275 3190 ft 229 kts 291°
2026-05-05 15:21 50.98658 -0.35744 3096 ft 234 kts 291°
2026-05-05 15:21 50.99164 -0.38171 3033 ft 234 kts 291°
2026-05-05 15:22 50.99670 -0.40613 3008 ft 232 kts 291°
2026-05-05 15:22 51.00329 -0.42903 2992 ft 227 kts 313°
2026-05-05 15:22 51.01541 -0.44414 3010 ft 222 kts 333°
2026-05-05 15:22 51.02914 -0.45590 3009 ft 226 kts 335°
2026-05-05 15:23 51.04324 -0.46727 3013 ft 229 kts 336°
2026-05-05 15:23 51.05761 -0.47872 3008 ft 230 kts 335°
2026-05-05 15:23 51.07184 -0.48995 3001 ft 225 kts 339°
2026-05-05 15:23 51.08669 -0.49374 3008 ft 214 kts 10°
2026-05-05 15:24 51.10001 -0.48364 3003 ft 217 kts 44°
2026-05-05 15:24 51.10773 -0.46286 3016 ft 221 kts 69°
2026-05-05 15:24 51.11279 -0.43948 3007 ft 225 kts 71°
2026-05-05 15:24 51.11679 -0.41578 2935 ft 219 kts 76°
2026-05-05 15:25 51.12006 -0.39236 2636 ft 214 kts 76°
2026-05-05 15:25 51.12318 -0.36956 2331 ft 206 kts 75°
2026-05-05 15:25 51.12621 -0.34791 2035 ft 195 kts 75°
2026-05-05 15:25 51.12904 -0.32764 1797 ft 185 kts 76°
2026-05-05 15:26 51.13183 -0.30771 1560 ft 184 kts 77°
2026-05-05 15:26 51.13442 -0.28820 1295 ft 175 kts 75°
2026-05-05 15:26 51.13699 -0.27049 1059 ft 159 kts 76°
2026-05-05 15:26 51.13922 -0.25445 860 ft 143 kts 77°
2026-05-05 15:27 51.14141 -0.23871 686 ft 146 kts 76°
2026-05-05 15:27 51.14364 -0.22284 467 ft 147 kts 78°
2026-05-05 15:27 51.14586 -0.20690 280 ft 148 kts 77°
2026-05-05 15:27 51.14800 -0.19152 221 ft 132 kts 77°
2026-05-05 15:28 51.14958 -0.18007 217 ft 67 kts 77°
2026-05-05 15:28 51.15023 -0.17536 220 ft 27 kts 77°
2026-05-05 15:28 51.15079 -0.17307 221 ft 16 kts 61°
2026-05-05 15:28 51.15127 -0.17216 216 ft 3 kts 11°
2026-05-05 15:29 51.15138 -0.17214 218 ft 3 kts
2026-05-05 15:29 51.15162 -0.17209 214 ft 4 kts
2026-05-05 15:29 51.15177 -0.17206 210 ft 0 kts
2026-05-05 15:31 51.15180 -0.17205 210 ft 1 kts
2026-05-05 15:32 51.15192 -0.17203 213 ft 2 kts
2026-05-05 15:32 51.15204 -0.17222 219 ft 3 kts 299°
2026-05-05 15:32 51.15212 -0.17252 217 ft 3 kts 292°
2026-05-05 15:32 51.15224 -0.17291 220 ft 5 kts 298°
2026-05-05 15:33 51.15253 -0.17330 219 ft 6 kts 333°
2026-05-05 15:33 51.15301 -0.17356 216 ft 8 kts 345°
2026-05-05 15:33 51.15356 -0.17377 217 ft 7 kts 347°
2026-05-05 15:33 51.15404 -0.17394 211 ft 7 kts 347°
2026-05-05 15:34 51.15453 -0.17410 216 ft 7 kts 349°
2026-05-05 15:34 51.15500 -0.17426 215 ft 7 kts 347°
2026-05-05 15:34 51.15545 -0.17442 215 ft 6 kts 347°
2026-05-05 15:34 51.15557 -0.17447 217 ft 1 kts 347°
2026-05-05 15:35 51.15565 -0.17446 217 ft 2 kts
2026-05-05 15:35 51.15583 -0.17429 217 ft 4 kts 42°
2026-05-05 15:35 51.15596 -0.17372 216 ft 7 kts 79°
2026-05-05 15:35 51.15608 -0.17281 218 ft 9 kts 77°
2026-05-05 15:36 51.15623 -0.17187 217 ft 9 kts 76°
2026-05-05 15:36 51.15636 -0.17098 214 ft 6 kts 77°
2026-05-05 15:36 51.15644 -0.17045 210 ft 4 kts 77°
2026-05-05 15:36 51.15666 -0.17024 212 ft 5 kts 352°
2026-05-05 15:37 51.15697 -0.17045 221 ft 5 kts 338°
2026-05-05 15:37 51.15730 -0.17059 219 ft 5 kts 348°
2026-05-05 15:37 51.15764 -0.17071 211 ft 5 kts 347°